Location: Corona
(40.7470°N, 73.8601°W)
Time: 12:51:27
(UTC+00:00)

Cosmos 2181 Rocket - Pass Details

Date: 22 September 2019
Orbit: 953 x 1014 km, 82.9° (Epoch: 16 October)

Event Time Altitude Azimuth Distance (km) Brightness Sun altitude
Rises 23:43:23 0° 163° (SSE) 3,651 6.7 -10.3°
Reaches altitude 10° 23:46:00 10° 156° (SSE) 2,717 6.0 -10.8°
Maximum altitude 23:51:44 41° 89° (E) 1,404 4.4 -11.9°
Drops below altitude 10° 23:57:36 10° 22° (NNE) 2,773 6.3 -13.0°
Sets 00:00:17 0° 15° (NNE) 3,734 7.0 -13.5°
